This is the latest recevied weather packets stored in our database for station/object DG4MND-4. If no packets are shown the sender has not sent any weather packets the latest 10 day(s).
| Time | Temp. | Humidity | Pressure | Rain* | Wind** | Luminosity | Snow |
|---|---|---|---|---|---|---|---|
| 1777770062 | 8.33° C | 87% | 1016 hPa | 0 mm | - | - | - |
| 1777769461 | 8.33° C | 86% | 1015.9 hPa | 0 mm | - | - | - |
| 1777768863 | 8.89° C | 85% | 1016.1 hPa | 0 mm | - | - | - |
| 1777768255 | 8.89° C | 83% | 1016.2 hPa | 0 mm | - | - | - |
| 1777767649 | 9.44° C | 83% | 1016.2 hPa | 0 mm | - | - | - |
| 1777767045 | 9.44° C | 82% | 1016.2 hPa | 0 mm | - | - | - |
| 1777766441 | 9.44° C | 84% | 1016.3 hPa | 0 mm | - | - | - |
| 1777765841 | 8.89° C | 85% | 1016.3 hPa | 0 mm | - | - | - |
| 1777765234 | 9.44° C | 85% | 1016.4 hPa | 0 mm | - | - | - |
| 1777764631 | 8.89° C | 85% | 1016.4 hPa | 0 mm | - | - | - |
| 1777764031 | 8.89° C | 84% | 1016.4 hPa | 0 mm | - | - | - |
| 1777763424 | 9.44° C | 84% | 1016.4 hPa | 0 mm | - | - | - |
| 1777762821 | 9.44° C | 83% | 1016.6 hPa | 0 mm | - | - | - |
| 1777762217 | 10° C | 82% | 1016.6 hPa | 0 mm | - | - | - |
| 1777761674 | 10° C | 81% | 1016.4 hPa | 0 mm | - | - | - |
| 1777761074 | 10° C | 81% | 1016.6 hPa | 0 mm | - | - | - |
| 1777760470 | 10.56° C | 80% | 1016.7 hPa | 0 mm | - | - | - |
| 1777759864 | 10.56° C | 80% | 1016.7 hPa | 0 mm | - | - | - |
| 1777759261 | 10.56° C | 79% | 1016.6 hPa | 0 mm | - | - | - |
| 1777758657 | 11.11° C | 79% | 1016.9 hPa | 0 mm | - | - | - |
| 1777758054 | 11.11° C | 77% | 1016.8 hPa | 0 mm | - | - | - |
| 1777757450 | 11.67° C | 77% | 1016.8 hPa | 0 mm | - | - | - |
| 1777756852 | 11.11° C | 77% | 1016.7 hPa | 0 mm | - | - | - |
| 1777756248 | 11.67° C | 76% | 1016.9 hPa | 0 mm | - | - | - |
| 1777755643 | 12.22° C | 75% | 1016.9 hPa | 0 mm | - | - | - |
* Rain latest hour (hover to see other rain measurements)
** Current wind speed in m/s (hover to see current wind gust speed)